Regional Weather Roundup
Issued by NWS

Home | Current Version | Previous Version | Graphics & Text | Print | Product List | Glossary On
Versions: 1 2 3 4 5 6 7 8 9 10 11 12 13 14 15 16 17 18 19 20 21 22 23 24 25 26 27 28 29 30 31 32 33 34 35 36 37 38 39 40 41 42 43 44 45 46 47 48 49 50
000
ASUS43 KLMK 282002
RWRKY
KENTUCKY REGIONAL WEATHER ROUNDUP
NATIONAL WEATHER SERVICE LOUISVILLE KY
300 PM EST FRI NOV 28 2014

NOTE "FAIR" INDICATES FEW OR NO CLOUDS BELOW 12,000 FEET
WITH NO SIGNIFICANT WEATHER AND/OR OBSTRUCTIONS TO VISIBILITY.

KYZ001>023-026-027-061>063-070>075-282100-
WESTERN AND SOUTH CENTRAL KENTUCKY

CITY           SKY/WX    TMP DP  RH WIND       PRES   REMARKS
PADUCAH        SUNNY     47  28  47 S14G21    30.16F
HENDERSON      SUNNY     45  28  53 S15       30.17F
OWENSBORO      SUNNY     42  27  55 S17       30.20F
HOPKINSVILLE   SUNNY     46  25  43 SE13      30.21F
BOWLING GREEN  SUNNY     44  21  40 SE10G17   30.25F
GLASGOW        NOT AVBL
$$

KYZ024-025-028>034-038-045-046-053-282100-
NORTH CENTRAL KENTUCKY

CITY           SKY/WX    TMP DP  RH WIND       PRES   REMARKS
LOUISVILLE/SDF PTSUNNY   39  20  46 S8        30.23F WCI  33
LOUISVILLE/LOU MOSUNNY   38  21  50 S7        30.24F WCI  33
FORT KNOX      SUNNY     38  24  57 SE9       30.22F WCI  32
$$

KYZ035>037-039>044-047>052-055>060-089>105-282100-
NORTHEAST KENTUCKY

CITY           SKY/WX    TMP DP  RH WIND       PRES   REMARKS
LEXINGTON      PTSUNNY   35  16  45 S13       30.26F WCI  26
COVINGTON      CLOUDY    35  16  45 S13       30.23F WCI  26
FRANKFORT      PTSUNNY   35  17  47 S10       30.25F WCI  27
$$

KYZ054-064>069-076>088-106>120-282100-
SOUTHEAST KENTUCKY

CITY           SKY/WX    TMP DP  RH WIND       PRES   REMARKS
JACKSON        MOSUNNY   34  16  47 VRB3      30.26F
LONDON         MOSUNNY   37  18  46 S8        30.27F WCI  31
SOMERSET       NOT AVBL
MIDDLESBORO    NOT AVBL
MONTICELLO     CLEAR     42  18  38 S6        30.30F
$$



USA.gov is the U.S. government's official web portal to all federal, state and local government web resources and services.